Regional Weather Roundup
Issued by NWS

Home | Current Version | Previous Version | Graphics & Text | Print | Product List | Glossary On
Versions: 1 2 3 4 5 6 7 8 9 10 11 12 13 14 15 16 17 18 19 20 21 22 23 24 25 26 27 28 29 30 31 32 33 34 35 36 37 38 39 40 41 42 43 44 45 46 47 48 49 50
642
ASUS43 KLMK 260702
RWRKY
KENTUCKY REGIONAL WEATHER ROUNDUP
NATIONAL WEATHER SERVICE LOUISVILLE KY
200 AM EST SUN FEB 26 2017

NOTE "FAIR" INDICATES FEW OR NO CLOUDS BELOW 12,000 FEET
WITH NO SIGNIFICANT WEATHER AND/OR OBSTRUCTIONS TO VISIBILITY.

KYZ001>023-026-027-061>063-070>075-260800-
WESTERN AND SOUTH CENTRAL KENTUCKY

CITY           SKY/WX    TMP DP  RH WIND       PRES   REMARKS
PADUCAH        CLEAR     25  18  74 CALM      30.16S
HENDERSON      CLEAR     25  16  68 W3        30.16S
OWENSBORO      CLEAR     28  20  71 CALM      30.17R
HOPKINSVILLE   PTCLDY    30  21  68 CALM      30.15S
BOWLING GREEN  CLEAR     30  19  63 CALM      30.17R
GLASGOW        NOT AVBL
$$

KYZ024-025-028>034-038-045-046-053-260800-
NORTH CENTRAL KENTUCKY

CITY           SKY/WX    TMP DP  RH WIND       PRES   REMARKS
LOUISVILLE/SDF PTCLDY    29  16  58 W8        30.14R WCI  21
LOUISVILLE/LOU PTCLDY    30  17  58 W6        30.14R WCI  24
FORT KNOX      CLEAR     27  17  66 SW3       30.12R
$$

KYZ035>037-039>044-047>052-055>060-089>105-260800-
NORTHEAST KENTUCKY

CITY           SKY/WX    TMP DP  RH WIND       PRES   REMARKS
LEXINGTON      CLEAR     26  17  68 SW5       30.11R WCI  20
COVINGTON      CLEAR     25  17  72 W7        30.09R WCI  17
FRANKFORT      CLEAR     27  16  63 SW5       30.11R WCI  22
$$

KYZ054-064>069-076>088-106>120-260800-
SOUTHEAST KENTUCKY

CITY           SKY/WX    TMP DP  RH WIND       PRES   REMARKS
JACKSON        CLEAR     29  18  63 SW5       30.09R WCI  24
LONDON         CLEAR     26  20  77 CALM      30.12R
SOMERSET       CLEAR     27  25  93 CALM      30.15S
MIDDLESBORO    CLEAR     28  23  82 CALM      30.13R
MONTICELLO     SUNNY     19  16  88 CALM      30.16R
$$





USA.gov is the U.S. government's official web portal to all federal, state and local government web resources and services.